Regional Weather Roundup
Issued by NWS Wakefield, VA

Home | Current Version | Previous Version | Graphics & Text | Print | Product List | Glossary On
Versions: 1 2 3 4 5 6 7 8 9 10 11 12 13 14 15 16 17 18 19 20 21 22 23 24 25 26 27 28 29 30 31 32 33 34 35 36 37 38 39 40 41 42 43 44 45 46 47 48 49 50
000
ASUS41 KAKQ 230710
RWRAKQ

REGIONAL WEATHER ROUNDUP
NATIONAL WEATHER SERVICE WAKEFIELD VA
300 AM EDT TUE SEP 23 2014

Note: "fair" indicates few or no clouds below 12,000 feet with no
significant weather and/or obstructions to visibility. * = Denotes
station may not report precipitation (e.g., rain,snow,etc.),
thunder or fog.

VAZ042-051-052>054-056-230800-
NORTHERN VIRGINIA

CITY           SKY/WX    TMP DP  RH WIND       PRES   REMARKS
WASH NATIONAL  MOCLDY    57  42  57 NW9       30.25S
DULLES         PTCLDY    52  41  66 N6        30.26R
FORT BELVOIR   PTCLDY    56  41  56 NW7       30.25S
QUANTICO       MOCLDY    56  42  59 N9        30.27R
FREDERICKSBRG* MOCLDY    56  46  69 CALM      30.25S
STAFFORD*      MOCLDY    50  45  80 CALM      30.30R
WARRENTON      MOCLDY    46  46  99 CALM      30.25S
CULPEPER*      PTCLDY    46  43  87 CALM      30.27R
MANASSAS*      PTCLDY    52  45  76 N6        30.26S
LEESBURG*      CLEAR     48  45  87 N3        30.27S
WINCHESTER     CLEAR     46  41  81 N5        30.27S
FRONT ROYAL*   SUNNY     45  43  93 CALM      30.26S
LURAY*         SUNNY     45  45 100 CALM      30.26F
$$

VAZ048-049-060>072-079>083-230800-
CENTRAL AND SOUTH CENTRAL VIRGINIA...AND NORTH CENTRAL NORTH CAROLINA

CITY           SKY/WX    TMP DP  RH WIND       PRES   REMARKS
RICHMOND       CLOUDY    59  45  59 NE9       30.23S
CHESTERFIELD*  CLOUDY   N/A N/A N/A NE6       30.24S
PETERSBURG*    CLOUDY    58  44  59 NE10      30.25R
HANOVER        MOCLDY    55  47  74 N3        30.25S
TAPPAHANNOCK*  MOCLDY    58  41  54 CALM      30.24S
CHARLOTTSVILLE CLEAR     51  44  77 CALM      30.24F
ORANGE*        PTCLDY    50  43  76 N3        30.26F
LOUISA*        MOCLDY    54  45  71 NE5       30.24S
FARMVILLE*     MOCLDY    55  46  71 NE3       30.22S
CREWE*         PTSUNNY   57  45  64 CALM      30.24R
FORT PICKETT*  PTSUNNY   55  46  71 NE5       30.23R
LUNENBURG*     PTSUNNY   58  47  67 N3        30.23R
SOUTH HILL*    MOCLDY    57  52  82 N6        30.27S
LAWRENCEVILLE* PTSUNNY   57  50  77 N3        30.22S
ROANOKE RAPIDS PTSUNNY   59  50  72 NE7       30.21R
RALEIGH        CLOUDY    63  52  67 NE14G20   30.18R
$$

VAZ088>098-230800-
SOUTHEAST VIRGINIA

CITY           SKY/WX    TMP DP  RH WIND       PRES   REMARKS
NORFOLK        CLOUDY    65  53  65 NE14      30.19R
VIRGINIA BEACH CLOUDY    65  50  58 N16       30.18R
NORFOLK NAVAL  CLOUDY    67  52  58 NE18G25   30.20R
WEST POINT*    MOCLDY    59  45  60 N3        30.24S
NEWPORT NEWS   CLOUDY    64  48  56 N7        30.21S
LANGLEY AFB    CLOUDY    64  51  62 N15G21    30.20R
FORT EUSTIS    CLOUDY    61  44  52 N9        30.20R
WILLIAMSBURG*  MOCLDY    61  50  67 N5        30.23R
HR EXEC AP*    CLOUDY    63  52  67 N6        30.22R
FRANKLIN*      CLOUDY    59  52  77 NE7       30.21R
WAKEFIELD      MOCLDY    60  47  61 N5        30.22R
$$

VAZ020-022-025-037-045-230800-
WEST CENTRAL AND SOUTHWEST VIRGINIA

CITY           SKY/WX    TMP DP  RH WIND       PRES   REMARKS
STAUNTON*      CLEAR     46  41  81 CALM      30.28F
HOT SPRINGS VA PTCLDY    44  29  56 N7        30.28F
LYNCHBURG      MOCLDY    55  48  77 N6        30.24S
DANVILLE       CLOUDY    60  48  64 NE9       30.21S
SOUTH BOSTON*  NOT AVBL
MARTINSVILLE   CLOUDY    55  52  92 N5        30.25S
ROANOKE        MOCLDY    53  45  74 N7        30.27R
BLACKSBURG     MOCLDY    46  46 100 CALM      30.28S
DUBLIN*        MOCLDY    48  46  92 CALM      30.27F
MARION*        PTCLDY    42  41  95 CALM      30.29F
HILLSVILLE*    MOCLDY    47  45  91 N5        30.25F
RICHLANDS*     MOSUNNY   48  46  92 N3        30.26F FOG
WISE*          CLEAR     48  43  81 NE3       30.27F
ABINGDON*      CLEAR     50  46  86 E5        30.25S
$$

MDZ021>025-VAZ099-100-230800-
SOUTHERN MARYLAND AND THE DELMARVA PENINSULA

CITY           SKY/WX    TMP DP  RH WIND       PRES   REMARKS
PATUXENT RIVER PTCLDY    59  45  59 NW13      30.22S
BAY BRIDGE APT   N/A     59  43  55 N9        30.23S
LEONARDTOWN    MOCLDY    55  43  62 CALM      30.25S
DOVER          MOCLDY    53  44  73 N6        30.20F
GEORGETOWN     PTCLDY    53  43  68 CALM      30.23R
EASTON         MOCLDY    56  47  71 CALM      30.26F
CAMBRIDGE      MOCLDY    59  45  58 N8        30.22F
SALISBURY      CLEAR     54  45  71 N6        30.22R
OCEAN CITY     PTCLDY    54  45  71 NW5       30.21S
WALLOPS ISLAND PTCLDY    56  47  71 N8        30.22R
ACCOMACK*      PTCLDY    55  45  67 NE8       30.21F
$$

NCZ012>017-030>032-230800-
EASTERN NORTH CAROLINA

CITY           SKY/WX    TMP DP  RH WIND       PRES   REMARKS
ELIZABETH CITY CLOUDY    65  57  75 N9        30.18R
AHOSKIE*       MOCLDY    60  53  77 N8        30.19S
EDENTON*       CLOUDY    62  57  84 N5        30.17S
CURRITUCK*     CLOUDY    68  52  56 N12       30.18R
KILL DEVIL HLS CLOUDY    69  55  60 NE9       30.15R
MANTEO         CLOUDY    68  56  65 NE12      30.16R
CAPE HATTERAS  CLOUDY    68  60  75 NE10G18   30.13S
TARBORO*       CLOUDY    64  58  82 N5        30.18S
GOLDSBORO      CLOUDY    65  63  91 CALM      30.13F
WASHINGTON     CLOUDY    63  59  88 NE5       30.16S
GREENVILLE     CLOUDY    64  59  82 NE6       30.17S
NEW BERN       CLOUDY    69  61  75 NE8       30.15S
WILMINGTON     CLOUDY    66  62  87 NE9       30.09F
$$

VAZ048-230800-
ELSEWHERE

CITY           SKY/WX    TMP DP  RH WIND       PRES   REMARKS
HARRISBURG PA  CLEAR     49  41  74 NW3       30.24S
BALTIMORE      PTCLDY    50  44  80 W3        30.24S
ANNAPOLIS      MOCLDY    59  46  62 MISG      30.23R
ANDREWS AFB    PTCLDY    53  42  65 N10       30.24F
WILMINGTON DE  PTCLDY    51  43  74 N5        30.23F
PHILADELPHIA   PTCLDY    55  40  56 NW5       30.24S
WILDWOOD NJ*   PTCLDY    55  41  58 N6        30.23R
ATLANTIC CITY  PTCLDY    49  44  83 N6        30.21S
HENDERSON NC   CLOUDY    59  48  65 NE10G16   30.20F
GREENSBORO     CLOUDY    59  50  72 N8        30.19S
ROCKY MOUNT    CLOUDY    65  57  75 NE7       30.17R
FAYETTEVILLE   CLOUDY    64  62  93 N5        30.13F
CHARLOTTE      CLOUDY    62  49  62 N9        30.18S
$$

VAZ100-230800-
MARINE

STATION/POSITION TIME  TEMP    WIND        PRES    WAVE   SWELL
                       AIR SEA DIR/SP/G            HT/PER HT/PER
                 (UTC) (F)     (DEG/KT/KT) (MB)    (FT/S) (FT/S)
44066 TX TWR #4  0700   60 70  360/ 14/ 17 1021.5R   5/ 6   3/ 9
CAPE MAY NJ      0700   58 72   10/  8/ 11 1022.7R
LEWES DE         0700   61 69   10/ 20/ 22 1022.9R
15NM E FENWICK I 0700   63 71              1022.3R   5/ 5
OCEAN-CITY-INLET 0700   59 70  360/  8/ 10 1022.6R
WACHAPREAGUE VA  0700   58 72   20/  6/  9 1023.0S
THOMAS POINT MD  0700   59 72  320/ 11/ 13 1024.7R
GOOSES REEF MD   0700   62     360/ 16/ 19 1023.6R
COVE POINT MD    0700   62      20/ 13/ 20 1023.1F
SOLOMONS ISLAND  0700      74                N/A
BISHOPS HEAD MD  0700   60 68   30/ 15/ 19 1022.8R
PINEY POINT MD   0700          360/ 14/ 16   N/A
POTOMAC MD       0700   62     350/ 12/ 14 1022.6S
CAMBRIDGE MD     0700   59 72   20/ 11/ 13 1023.1F
LEWISETTA VA     0700   61 72  360/  8/ 11 1023.1R
RAPPAHANNOCK LGT 0700           20/ 26/ 30 1022.9S
STINGRAY PT      0700   66      20/ 19/ 23   N/A
YORK RVR RNG VA  0700   65      10/ 18/ 22 1022.1R
YORKTOWN VA      0700   63 75  360/ 13/ 15 1022.6R
JAMESTOWN VA     0700   60      30/  4/  8   N/A
DOMINION TERM VA 0700   65      40/  2/  7 1022.3R
KIPTOPEKE VA     0700      77   40/  8/ 13   N/A
CHES BAY BRIDGE  0700   65 75   20/ 23/ 27 1021.4R
CAPE HENRY VA    0700   65      20/ 25/ 29 1020.9R
CHESAPEAKE LGHT  0600   67      20/ 23/ 25 1021.9F
WILLOUBY STN VA  0700   66      20/ 14/ 16 1020.8R
S CRANEY ISL VA  0700          340/ 16/ 19 1021.7R
CAPE HENRY BUOY  0700      75                N/A     5/ 5
1ST LANDING BUOY 0700   66      40/ 21/ 25 1021.9R
CAPE CHARLES BUO 0700      74                N/A     4/ 5   2/ 8
OFFSHORE WE BUOY 0700      74                N/A     5/ 5   2/ 8
64NM E OF VA BCH 0700   70 76   20/ 17/ 21 1020.5F   4/ 8   2/ 8
DUCK PIER NC     0700   70 74   30/ 17/ 22 1020.6R
44100 DUCK FRF   0700      74                N/A     4/ 5
44056 DUCK FRF   0700                        N/A     4/ 5
OREGON INLET NC  0700   70 75   30/ 14/ 17 1020.6F
DIAMOND SHLS NC  0700   73      20/ 19/ 23 1019.5F   4/ 6   2/ 8
CAPE LOOKOUT NC  0600   74      40/ 16/ 17 1019.6R
$$


USA.gov is the U.S. government's official web portal to all federal, state and local government web resources and services.